Regional Weather Roundup
Issued by NWS Upton, NY

Current Version | Previous Version | Graphics & Text | Print | Product List | Glossary Off
Versions: 1 2 3 4 5 6 7 8 9 10 11 12 13 14 15 16 17 18 19 20 21 22 23 24 25 26 27 28 29 30 31 32 33 34 35 36 37 38 39 40 41 42 43 44 45 46 47 48 49 50

000
ASUS41 KOKX 040808
RWROKX

REGIONAL WEATHER ROUNDUP
NATIONAL WEATHER SERVICE NEW YORK NY
400 AM EDT MON MAY 04 2015

NOTE: "FAIR" INDICATES FEW OR NO CLOUDS BELOW 12,000 FEET WITH NO
SIGNIFICANT WEATHER AND/OR OBSTRUCTIONS TO VISIBILITY.

NYZ071-072-176-178-NJZ106-104-040900-
NEW YORK CITY METRO AREA


CITY           SKY/WX    TMP DP  RH WIND       PRES   REMARKS
CENTRAL PARK   CLEAR     57  47  69 NE3       30.19R
LAGUARDIA APRT CLEAR     57  46  66 S5        30.16S
KENNEDY INTL   CLEAR     51  47  86 CALM      30.18S
NEWARK/LIBERTY CLEAR     58  43  57 S3        30.16S
BRNX BOT. GARD   N/A     50  48  93 CALM      30.16S
TETERBORO      CLEAR     55  42  61 SW3       30.15S
$$

NYZ177-179-078>081-040900-
LONG ISLAND NEW YORK

CITY           SKY/WX    TMP DP  RH WIND       PRES   REMARKS
FARMINGDALE    CLEAR     50  47  89 SE3       30.18S
ISLIP          CLEAR     50  47  89 CALM      30.17R
SHIRLEY        CLEAR     47  45  93 CALM      30.19S
WESTHAMPTON    CLEAR     38  36  92 SE3       30.20S FOG
MONTAUK POINT    N/A     50  46  86 S3        30.21R
$$

NYZ052-065-067-040900-
HUDSON VALLEY

CITY           SKY/WX    TMP DP  RH WIND       PRES   REMARKS
WHITE PLAINS   CLEAR     49  45  86 CALM      30.16R
NEWBURGH       NOT AVBL
MONTGOMERY     CLEAR     46  42  86 CALM      30.15R
POUGHKEEPSIE   CLEAR     49  43  80 CALM      30.15R
ALBANY         PTCLDY    59  40  49 S7        30.13R
$$

NJZ001-105-106-008-010-013-015-019>022-104-040900-
NEW JERSEY

CITY           SKY/WX    TMP DP  RH WIND       PRES   REMARKS
NEWARK/LIBERTY CLEAR     58  43  57 S3        30.16S
TETERBORO      CLEAR     55  42  61 SW3       30.15S
CALDWELL       CLEAR     49  44  83 CALM      30.17R
MORRISTOWN     CLEAR     46  41  81 CALM      30.17R
SOMERVILLE     CLEAR     46  42  86 CALM      30.15S
SUSSEX         CLEAR     45  41  86 CALM      30.18R
ANDOVER          N/A     49  46  90 CALM      30.17R
TRENTON        CLEAR     54  40  59 CALM      30.16S
MILLVILLE      CLEAR     47  45  93 CALM      30.18R
ATLANTIC CITY  CLEAR     48  45  89 CALM      30.18S
WRIGHTSTOWN    CLEAR     49  47  91 CALM      30.15R
TOMS RIVER     CLEAR     45  43  93 CALM      30.18S
BELMAR         CLEAR     55  43  62 SW6       30.17S
$$

PAZ047>061-062-071-040900-
EASTERN PENNSYLVANIA

CITY           SKY/WX    TMP DP  RH WIND       PRES   REMARKS
PHILADELPHIA   CLEAR     58  49  72 SW3       30.18R
ALLENTOWN      CLEAR     48  41  76 NW3       30.17R
SCRANTON       PTCLDY    56  37  49 CALM      30.15R
$$

CTZ002-004>006-009-010-012-RIZ004-006-007-MAZ004-011-015-040900-
SOUTHERN NEW ENGLAND
 IN CT

CITY           SKY/WX    TMP DP  RH WIND       PRES   REMARKS
BRADLEY INTL   CLEAR     50  43  77 S5        30.16S
HARTFORD       CLEAR     48  32  53 S5        30.17S
DANBURY        CLEAR     45  39  79 CALM      30.18S
WTRBRY/OXFORD  CLEAR     46  37  71 CALM      30.19S
BRIDGEPORT     CLEAR     50  47  89 CALM      30.18R
MERIDEN        CLEAR     44  41  89 CALM      30.18R
NEW HAVEN      CLEAR     46  43  89 CALM      30.18R
CHESTER        FAIR      45  43  93 CALM      30.19R
GROTON         CLEAR     44  42  93 CALM      30.19S
WILLIMANTIC    CLEAR     45  41  86 CALM      30.19S

 IN RI

CITY           SKY/WX    TMP DP  RH WIND       PRES   REMARKS
PROVIDENCE     PTCLDY    47  45  93 S6        30.19S
BLOCK ISLAND   CLEAR     48  43  81 SW9       30.20R
WESTERLY       CLEAR     43  41  93 CALM      30.20S

 IN MA

CITY           SKY/WX    TMP DP  RH WIND       PRES   REMARKS
BOSTON         PTCLDY    50  44  80 SW7       30.16S
WORCESTER      CLEAR     54  38  54 W14       30.16S
WESTFIELD      CLEAR     48  42  80 S3        30.16S
PROVINCETOWN   CLEAR     48  46  93 S13       30.19R
NANTUCKET      CLEAR     48  45  89 S6        30.21S
$$

ANZ330-335-338-340-345-350-353-355-040900-
COASTAL MARINE OBSERVATIONS


STATION/POSITION TIME  SKY/WX   TEMP    WIND        PRES    VSBY  WAVE
                                AIR SEA DIR/SP/G                  HT/PER
                 (UTC)          (F)     (DEG/KT/KT) (MB)    (MI)  (FT/S)
NY HARB ENTRANCE 0750            51 51  150/  4/  4 1021.8          3/ 9
4S FIRE IS       0703               49                N/A           4/ 8
20S FIRE ISLAND  0750            49 46  200/  6/  8 1022.3          3/ 7
GREAT SOUTH BAY  0700            54 58  260/ 10/ 10   N/A
23SW MTP         0750            48 46  190/  4/  6 1022.6          3/ 8
HUDSON CANYON    NOT AVBL
EXECUTION ROCKS  NOT AVBL
WESTERN LI SOUND NOT AVBL
CENTRAL LI SOUND NOT AVBL
EASTERN LI SOUND 0700            46     190/  4/  6   N/A
ROBBINS REEF     0700            59     170/  7/  7 1020.2
$$


>>>>>>>>>>>>>>>>>>>>>>>>>>>> KEY <<<<<<<<<<<<<<<<<<<<<<<<<<<
>                                                          <
>     SKY/WX - SKY CONDITION/PRESENT WEATHER               <
>     TMP    - TEMPERATURE IN FAHRENHEIT                   <
>     DP     - DEWPOINT IN FAHRENHEIT                      <
>     RH     - RELATIVE HUMIDITY IN PERCENT                <
>     WIND   - DIRECTION AND SPEED IN MPH                  <
>     PRES   - MEAN SEA LEVEL PRESSURE IN INCHES OF HG     <
>     WCI    - WIND CHILL INDEX                            <
>     VSB    - VISIBILITY IN MILES                         <
>     HX     - HEAT INDEX                                  <
>     TC     - TEMPERATURE IN CELSIUS                      <
>     VRB    - VARIABLE WIND DIRECTION                     <
>                                                          <
>>>>>>>>>>>>>>>>>>>>>>>>>>>> KEY <<<<<<<<<<<<<<<<<<<<<<<<<<<




USA.gov is the U.S. government's official web portal to all federal, state and local government web resources and services.